Location: Cedar Brake
(32.2526°N, 97.8459°W)
Time: 07:28:09
(UTC+00:00)

BREEZE-M DEB (TANK) - Pass Details

Date: 22 April 2026
Orbit: 264 x 12028 km, 49.5° (Epoch: 14 May)

Event Time Altitude Azimuth Distance (km) Brightness Sun altitude
Rises 03:21:32 0° 223° (SW) 6,282 7.8 -26.7°
Reaches altitude 10° 03:27:21 10° 222° (SW) 3,793 6.6 -27.7°
Enters shadow 03:32:17 30° 216° (SW) 1,530 4.4 -28.5°
